Location: Hall+in+Tirol
(47.2830°N, 11.5170°E)
Time: 16:38:45
(UTC+02:00)

Daily predictions for brighter satellites

Satellite Brightness Start Highest point End
(mag) Time Altitude Azimuth Time Altitude Azimuth Time Altitude Azimuth
deb Chang Zheng 4 4.0 21:23:06 10° NNE 21:27:21 44° E 21:31:36 10° S
COS B Rocket 3.5 21:28:52 10° N 21:32:55 53° E 21:36:32 10° SSE
Coronas F rocket 3.7 21:32:02 10° SW 21:34:22 27° WNW 21:36:43 10° NNW
Envisat 3.0 21:30:12 10° SSE 21:35:16 81° ENE 21:40:23 10° NNW
USA 245 4.4 21:35:42 10° SE 21:38:51 30° ENE 21:42:42 10° N
Gbstr 26 Del rocket 4.0 21:34:21 10° WNW 21:39:57 55° N 21:44:28 10° E
Meteor 1-27 Rocket 3.8 21:34:51 10° NNW 21:40:28 86° W 21:45:59 10° S
Cosmos 614 Rocket 4.4 21:37:38 10° NNW 21:42:34 46° ENE 21:47:19 11° SE
MetOp-B 4.3 21:40:42 10° SSE 21:45:57 62° ENE 21:51:16 10° N
Cosmos 1420 Rocket 4.5 21:41:41 10° S 21:46:32 39° ESE 21:51:22 10° NE
H-2A R/B 2.2 21:45:25 10° S 21:49:41 75° WSW 21:53:55 10° NNW
ERS-1 Rocket 3.8 21:45:52 10° S 21:50:46 52° W 21:55:43 10° NNW
Intercosmos 25 3.8 21:49:25 10° SSE 21:52:28 30° E 21:55:18 10° NNE
Cosmos 1140 Rocket 3.5 21:49:09 10° NNW 21:54:20 84° ENE 21:59:27 10° SSE
Cosmos 1862 3.3 21:50:22 10° S 21:54:26 86° E 21:58:33 10° N
Cosmos 1606 3.7 21:55:02 10° NNW 21:58:51 48° W 22:02:38 10° SSW
SL-8 R/B 3.8 21:57:24 10° W 22:02:15 85° N 22:07:05 10° ENE
Nadezhda 3 Rocket 4.3 21:55:58 10° NNW 22:02:18 71° W 22:08:37 10° S
COSMOS 2487 3.2 21:59:55 10° NNW 22:03:27 51° WSW 22:06:57 10° S
H-2A R/B 3.1 21:59:40 13° ESE 22:03:49 32° ENE 22:08:26 10° N
ARGOS 3.4 22:00:25 12° SE 22:05:14 57° ENE 22:10:29 10° N
Cosmos 1452 Rocket 3.7 22:00:15 10° SSW 22:05:32 80° WNW 22:10:51 10° NNE
CZ-4B R/B 3.9 22:01:22 10° NNE 22:06:02 40° E 22:10:29 10° SSE
Cosmos 2218 Rocket 4.4 22:01:49 10° SSE 22:07:51 46° E 22:13:54 10° NNE
Meteor 2-13 Rocket 4.5 22:02:15 10° S 22:08:21 67° E 22:14:28 10° NNE
BREEZE-M DEB 4.3 22:05:27 10° WSW 22:09:41 62° SSE 22:12:28 10° ENE
Okean 3 3.9 22:05:50 10° NNW 22:10:05 64° W 22:14:17 10° S
USA 229 DEB 3.8 22:10:53 10° NW 22:18:02 79° NE 22:23:47 17° SE
USA 229 3.9 22:10:59 10° NW 22:18:07 79° NE 22:23:53 17° SE
DNEPR-1 R/B 4.3 22:12:46 10° NW 22:18:14 59° WSW 22:21:51 16° SSE
Cosmos 1727 Rocket 4.3 22:12:47 10° N 22:18:48 51° ENE 22:23:26 17° SSE
SPOT 1/Viking Rocket 3.6 22:14:32 13° SSE 22:19:09 83° ENE 22:24:25 10° NNW
SL-08 RB Rocket 3.9 22:16:52 17° SSE 22:20:22 62° ENE 22:24:59 10° N
CZ-4C R/B 4.1 22:18:03 19° SE 22:20:27 38° ENE 22:24:21 10° N
Okean 2 Rocket 3.1 22:17:21 10° S 22:21:47 86° WNW 22:26:13 10° N
UNK 4.4 22:17:09 10° NNE 22:23:24 75° ESE 22:29:21 10° S
Terra 2.7 22:21:14 18° ESE 22:24:13 36° ENE 22:28:34 10° N
CZ-4 SHROUD 4.0 22:22:09 13° S 22:24:44 47° W 22:27:45 10° NNW
Cosmos 1238 Rocket 4.1 22:23:05 10° NNW 22:26:01 32° W 22:29:22 10° SSW
PSLV R/B 4.2 22:23:55 12° SSW 22:26:23 39° W 22:29:12 10° NNW
Cosmos 1833 Rocket 2.8 22:21:04 10° NNW 22:26:42 71° ENE 22:30:40 20° SE
Cosmos 2341 Rocket 4.5 22:26:06 10° SSW 22:32:20 64° WNW 22:38:34 10° N
Cosmos 2278 Rocket 2.5 22:27:13 10° SW 22:32:52 70° WNW 22:38:33 10° NNE
Cosmos 1782 Rocket 4.3 22:28:52 10° SSW 22:33:15 55° WNW 22:37:40 10° N
SPOT 5 4.0 22:28:18 10° S 22:33:23 46° W 22:38:32 10° NNW
Cosmos 1844 Rocket 4.3 22:28:56 10° WSW 22:34:10 38° NW 22:39:25 10° NNE
Cosmos 1850 Rocket 4.4 22:29:27 10° NNW 22:34:42 60° WSW 22:38:58 16° S
Cosmos 1242 Rocket 3.8 22:34:38 10° NNW 22:38:05 39° W 22:41:09 12° SSW
YAOGAN 6 3.8 22:38:02 12° SSW 22:40:55 37° W 22:44:14 10° NNW
SL-8 Rocket 4.0 22:37:11 10° S 22:43:28 85° W 22:49:45 10° N
Meteor 1-18 Rocket 4.3 22:38:38 10° N 22:44:35 81° ENE 22:48:41 21° SSE
Lacrosse 5 3.5 22:48:42 17° E 22:48:42 17° E 22:50:41 10° E
CARTOSAT-1 3.7 22:47:11 28° SE 22:49:19 61° ENE 22:53:35 10° N
Cosmos 2082 Rocket 2.4 22:44:01 10° NNW 22:49:41 66° WSW 22:53:24 22° S
ISS -3.3 22:46:29 10° WSW 22:49:45 79° NNW 22:53:01 10° ENE
DELTA 2 DEB (DPAF) 4.1 22:47:35 26° SSE 22:50:06 83° ENE 22:54:37 10° NNW
Meteor 1-14 Rocket 4.3 22:46:55 10° SSW 22:52:35 80° WNW 22:58:12 10° N
Okean 1 3.5 22:50:05 10° N 22:54:06 57° ENE 22:55:40 33° SE
ATLAS 2AS CENTAUR R/B 4.4 22:49:15 10° NW 22:56:35 34° NNE 23:03:42 10° E
Cosmos 1536 Rocket 3.7 22:53:28 10° NNW 22:57:58 75° W 23:00:30 25° S
ASTEX 1 4.0 22:53:32 10° NNE 22:58:14 41° E 23:00:06 29° SE
DMSP B5D2-2 4.2 22:56:43 10° NNE 23:01:50 53° E 23:04:24 28° SSE
Cosmos 1331 Rocket 4.1 23:03:27 27° S 23:06:01 53° ESE 23:11:02 10° NNE
NOSS 3-1 (C) 4.2 22:58:43 10° NW 23:06:05 69° NE 23:11:32 23° SE
Cosmos 2297 4.0 23:03:12 10° SW 23:08:53 70° WNW 23:14:39 10° NNE
AVUM R/B 3.9 23:05:47 10° NW 23:09:14 50° WSW 23:10:06 39° SSW
SAR-Lupe-2 3.6 23:11:38 47° SE 23:12:25 62° ENE 23:15:58 10° N
Cosmos 1110 Rocket 3.9 23:10:08 23° S 23:13:23 70° ESE 23:18:35 10° NNE
USA 234 3.5 23:10:26 10° ENE 23:16:34 42° SE 23:21:31 15° SSW
Cosmos 1812 2.9 23:13:24 10° NNW 23:17:15 65° W 23:18:35 38° SSW
Meteor 1-11 Rocket 4.2 23:17:00 31° SE 23:19:12 45° E 23:24:40 10° NNE
CZ-4 R/B 4.4 23:17:23 10° N 23:21:57 54° WNW 23:25:55 13° SW
Gbstr 26 Del rocket 3.0 23:22:09 10° WNW 23:27:09 70° SSW 23:28:17 47° SE
IGS 5A 3.8 23:28:31 37° SSW 23:29:56 58° W 23:34:04 10° NNW
Genesis I 4.2 23:32:59 32° E 23:32:59 32° E 23:35:46 10° NE
Cosmos 1025 Rocket 3.3 23:29:12 10° N 23:33:32 55° ENE 23:34:29 45° ESE
Cosmos 1315 Rocket 4.1 23:36:14 26° E 23:36:14 26° E 23:39:13 10° NE
Cosmos 1354 Rocket 4.2 23:31:00 10° NNW 23:36:14 62° ENE 23:38:07 38° SE
Cosmos 1486 Rocket 4.1 23:31:25 10° NNW 23:36:46 75° WSW 23:38:44 39° S
Lacrosse 5 rocket 2.6 23:40:37 24° ENE 23:40:37 24° ENE 23:42:17 10° ENE
Okean 2 4.4 23:36:28 10° N 23:40:17 34° ENE 23:40:51 32° E
Cosmos 2369 Rocket 2.9 23:39:48 33° ESE 23:40:27 34° ESE 23:45:28 10° NE
CZ-4B R/B 3.8 23:42:12 13° ENE 23:42:12 13° ENE 23:43:43 10° NE
Cosmos 1455 Rocket 4.5 23:42:17 23° E 23:42:17 23° E 23:45:44 10° NE
H-2A R/B 3.0 23:40:18 24° SSW 23:43:06 42° W 23:48:07 10° NNW
Timation 1 Rocket 4.4 23:37:54 12° SW 23:43:33 77° WNW 23:49:35 10° NNE
Cosmos 1300 Rocket 3.9 23:42:29 33° SSW 23:44:19 62° WNW 23:48:46 10° N
Meteor 1-23 Rocket 4.4 23:38:59 10° N 23:44:30 58° ENE 23:46:20 39° SE
SL-8 R/B 3.7 23:40:07 10° W 23:44:58 83° N 23:47:24 29° E
ALOS 2 3.9 23:45:13 25° E 23:46:15 28° ENE 23:50:00 10° N
Meteor 1-19 Rocket 4.2 23:41:20 10° N 23:47:14 87° ENE 23:49:25 41° SSE
Okean 1 Rocket 3.4 23:47:07 37° SSW 23:48:47 65° WNW 23:53:14 10° N
BREEZE-M DEB (TANK) 2.5 23:48:17 10° WNW 23:50:44 67° NNE 23:56:59 10° E
Cosmos 1346 Rocket 4.4 23:51:11 10° NNE 23:54:21 23° ENE 23:54:40 23° ENE
